Location: eljas
(40.1958°N, 6.8661°W)
Time: 18:11:29
(UTC+02:00)

Amateur Radio Satellites - All Passes

Search period start: 30 August 2014 17:41
Search period end: 31 August 2014 17:41
Location: eljas, 40.1958°N, 6.8661°W

Satellite Date Start Highest point End Downlink Frequencies (MHz)
Time Altitude Azimuth
RS-15 30 Aug 17:46:48 17:57:32 52° 48° (NE) 18:08:37 29.354 - 29.394 USB, Beacon 29.352 USB
Uosat F 30 Aug 17:50:20 17:55:20 76° 74° (ENE) 18:00:21 435.120 FM
AO-7 30 Aug 17:53:57 18:02:19 89° 252° (WSW) 18:10:41 29.400 - 29.500 MHz
Gurwin Techsat 1B 30 Aug 17:56:07 17:59:08 15° 269° (W) 18:02:09 435.225 FM
PCSat 30 Aug 18:04:15 18:09:01 33° 109° (ESE) 18:13:48 145.825 MHz
JAS-2 30 Aug 18:22:51 18:27:04 20° 64° (ENE) 18:31:01 435.800 - 435.900 CW/SSB, 435.910 FM
ISS 30 Aug 18:27:26 18:30:38 42° 31° (NNE) 18:33:50 145.800 FM
OPAL 30 Aug 19:10:49 19:16:05 88° 106° (ESE) 19:21:17 ?
Hamsat 30 Aug 19:16:44 19:20:54 51° 74° (ENE) 19:25:08 145.90 MHz
Sapphire 30 Aug 19:17:15 19:22:37 65° 301° (WNW) 19:28:01 437.095 MHz 1200 baud AX-25 AFSK
Uosat F 30 Aug 19:33:01 19:34:39 11° 270° (W) 19:36:17 435.120 FM
PCSat 30 Aug 19:47:24 19:52:21 36° 307° (NW) 19:57:20 145.825 MHz
AO-7 30 Aug 19:51:02 19:56:05 17° 269° (W) 20:01:09 29.400 - 29.500 MHz
RS-15 30 Aug 19:59:24 20:09:50 49° 250° (WSW) 20:20:41 29.354 - 29.394 USB, Beacon 29.352 USB
ISS 30 Aug 20:04:35 20:07:12 21° 227° (SW) 20:09:48 145.800 FM
JAS-2 30 Aug 20:05:39 20:11:50 59° 259° (WSW) 20:17:22 435.800 - 435.900 CW/SSB, 435.910 FM
SO-67 30 Aug 20:27:32 20:30:48 40° 74° (ENE) 20:34:05 435.3500 MHz FM
OPAL 30 Aug 20:51:59 20:54:11 13° 303° (WNW) 20:56:24 ?
STRAND 1 30 Aug 20:54:03 20:58:56 44° 99° (E) 21:03:47 ?
Hamsat 30 Aug 20:55:02 20:57:10 13° 269° (W) 20:59:19 145.90 MHz
Sapphire 30 Aug 21:05:02 21:07:07 12° 321° (NW) 21:09:13 437.095 MHz 1200 baud AX-25 AFSK
HO-68 30 Aug 21:53:40 22:00:21 45° 66° (ENE) 22:07:03 435.675 MHz FM
SO-67 30 Aug 22:03:27 22:04:03 10° 269° (W) 22:04:40 435.3500 MHz FM
Oscar 10/S400 30 Aug 22:29:24 22:51:05 62° 170° (S) 07:27:55 145.825 - 145.975 CW/USB, Beacon 145.810 USB
STRAND 1 30 Aug 22:33:57 22:37:49 22° 295° (WNW) 22:41:39 ?
UKube-1 30 Aug 22:37:42 22:41:48 42° 71° (ENE) 22:45:54 145.840 MHz, 145.915 MHz
Oscar 11 30 Aug 22:44:27 22:48:14 30° 70° (ENE) 22:52:02 145.825 FM, Beacon 2401.500 USB
FUNcube-1 30 Aug 23:10:03 23:13:14 22° 67° (ENE) 23:16:28 145.950 - 145.970 MHz USB
KITSAT 1 30 Aug 23:23:22 23:25:49 12° 98° (E) 23:28:16 435.175 FM
MaSat-1 30 Aug 23:25:30 23:28:29 17° 48° (NE) 23:31:14 437.345 MHz
Saudisat 1A 30 Aug 23:30:06 23:33:18 20° 111° (ESE) 23:36:32 436.775 MHz
HO-68 30 Aug 23:41:48 23:48:08 34° 263° (W) 23:54:32 435.675 MHz FM
UKube-1 31 Aug 00:15:26 00:18:11 16° 267° (W) 00:20:56 145.840 MHz, 145.915 MHz
Oscar 11 31 Aug 00:20:59 00:24:25 23° 265° (W) 00:27:53 145.825 FM, Beacon 2401.500 USB
FUNcube-1 31 Aug 00:45:46 00:49:27 30° 264° (W) 00:53:13 145.950 - 145.970 MHz USB
MaSat-1 31 Aug 01:01:33 01:05:59 54° 250° (WSW) 01:09:47 437.345 MHz
Saudisat 1A 31 Aug 01:08:25 01:12:36 42° 308° (NW) 01:16:48 436.775 MHz
KITSAT 1 31 Aug 01:11:43 01:19:44 70° 115° (ESE) 01:27:46 435.175 FM
Sapphire 31 Aug 02:23:48 02:27:00 16° 42° (NE) 02:30:11 437.095 MHz 1200 baud AX-25 AFSK
PCSat 31 Aug 02:52:29 02:57:00 26° 49° (NE) 03:01:30 145.825 MHz
Oscar 19 31 Aug 03:02:29 03:06:12 20° 93° (E) 03:09:53 437.125 CW, 437.150 USB
KITSAT 1 31 Aug 03:08:49 03:15:47 31° 317° (NW) 03:22:46 435.175 FM
JAS-1B 31 Aug 03:20:55 03:23:25 12° 84° (E) 03:25:48 435.800 - 435.900 CW/SSB
AO-Echo 31 Aug 03:31:08 03:33:56 16° 92° (E) 03:36:43 ?
ITAMSAT 1 31 Aug 03:34:57 03:38:14 17° 92° (E) 03:41:31 435.822 SSB
Oscar 16 31 Aug 03:36:26 03:41:23 43° 99° (E) 03:46:17 437.025 USB, Beacon 2401.1428
Uribyol 2 31 Aug 03:44:21 03:48:23 22° 94° (E) 03:52:23 436.500 FM
AO-27 31 Aug 04:02:56 04:07:34 32° 97° (E) 04:12:10 436.795 MHz FM
Sapphire 31 Aug 04:05:45 04:11:13 88° 62° (ENE) 04:16:39 437.095 MHz 1200 baud AX-25 AFSK
Gurwin Techsat 1B 31 Aug 04:30:50 04:35:17 27° 95° (E) 04:39:42 435.225 FM
PCSat 31 Aug 04:35:27 04:40:39 48° 247° (WSW) 04:45:49 145.825 MHz
Oscar 19 31 Aug 04:40:47 04:45:47 49° 289° (WNW) 04:50:46 437.125 CW, 437.150 USB
OPAL 31 Aug 04:48:30 04:51:59 19° 61° (ENE) 04:55:30 ?
AO-Echo 31 Aug 05:08:28 05:13:00 50° 288° (WNW) 05:17:33 ?
JAS-1B 31 Aug 05:08:28 05:15:17 83° 286° (WNW) 05:21:09 435.800 - 435.900 CW/SSB
KITSAT 1 31 Aug 05:12:19 05:14:24 11° 345° (NNW) 05:16:29 435.175 FM
ITAMSAT 1 31 Aug 05:13:00 05:18:04 57° 288° (WNW) 05:23:08 435.822 SSB
Oscar 16 31 Aug 05:16:23 05:20:27 24° 295° (WNW) 05:24:29 437.025 USB, Beacon 2401.1428
SO-50 31 Aug 05:16:27 05:20:49 58° 118° (ESE) 05:25:18 436.795 FM
TMSAT-1 31 Aug 05:21:50 05:27:05 59° 101° (E) 05:32:17 436.925 FM
Uribyol 2 31 Aug 05:23:07 05:28:00 43° 290° (WNW) 05:32:54 436.500 FM
AO-27 31 Aug 05:42:30 05:46:59 30° 293° (WNW) 05:51:28 436.795 MHz FM
Sapphire 31 Aug 05:52:08 05:53:49 11° 258° (WSW) 05:55:30 437.095 MHz 1200 baud AX-25 AFSK
AO-7 31 Aug 05:56:50 06:04:01 32° 97° (E) 06:11:09 29.400 - 29.500 MHz
Uosat F 31 Aug 05:59:17 06:03:19 24° 95° (E) 06:07:19 435.120 FM
Gurwin Techsat 1B 31 Aug 06:10:27 06:15:18 37° 291° (WNW) 06:20:08 435.225 FM
OPAL 31 Aug 06:25:28 06:30:24 55° 257° (WSW) 06:35:27 ?
SO-50 31 Aug 06:58:34 07:01:46 19° 317° (NW) 07:05:01 436.795 FM
JAS-1B 31 Aug 07:01:35 07:04:33 13° 309° (NW) 07:07:21 435.800 - 435.900 CW/SSB
TMSAT-1 31 Aug 07:03:01 07:06:30 18° 297° (WNW) 07:10:00 436.925 FM
KITSAT 1 31 Aug 07:12:01 07:14:29 11° 17° (NNE) 07:16:58 435.175 FM
UOSAT-12 31 Aug 07:15:30 07:20:05 74° 120° (ESE) 07:24:47 437.025 FM, 437.400 FM
JAS-2 31 Aug 07:16:12 07:19:14 15° 92° (E) 07:22:22 435.800 - 435.900 CW/SSB, 435.910 FM
Uosat F 31 Aug 07:37:35 07:42:11 38° 291° (WNW) 07:46:46 435.120 FM
AO-7 31 Aug 07:49:05 07:57:06 57° 294° (WNW) 08:05:06 29.400 - 29.500 MHz
Saudisat 1A 31 Aug 07:56:51 07:59:49 17° 43° (NE) 08:02:46 436.775 MHz
STRAND 1 31 Aug 08:09:24 08:14:25 61° 73° (ENE) 08:19:26 ?
RS-15 31 Aug 08:11:33 08:20:40 31° 105° (ESE) 08:29:36 29.354 - 29.394 USB, Beacon 29.352 USB
Hamsat 31 Aug 08:38:48 08:43:08 71° 284° (WNW) 08:47:25 145.90 MHz
UOSAT-12 31 Aug 08:57:46 09:00:47 17° 319° (NW) 09:03:49 437.025 FM, 437.400 FM
JAS-2 31 Aug 08:59:32 09:04:43 62° 287° (WNW) 09:10:17 435.800 - 435.900 CW/SSB, 435.910 FM
KITSAT 1 31 Aug 09:05:51 09:12:59 33° 45° (NE) 09:20:03 435.175 FM
SO-67 31 Aug 09:24:34 09:27:58 53° 100° (E) 09:31:21 435.3500 MHz FM
Saudisat 1A 31 Aug 09:35:26 09:39:48 62° 241° (WSW) 09:44:07 436.775 MHz
AO-7 31 Aug 09:45:04 09:48:06 13° 315° (NW) 09:51:08 29.400 - 29.500 MHz
STRAND 1 31 Aug 09:51:08 09:54:00 15° 269° (W) 09:56:52 ?
RS-15 31 Aug 10:21:00 10:32:03 71° 305° (NW) 10:43:00 29.354 - 29.394 USB, Beacon 29.352 USB
KITSAT 1 31 Aug 11:00:56 11:08:54 64° 246° (WSW) 11:16:48 435.175 FM
HO-68 31 Aug 11:09:02 11:15:56 49° 100° (E) 11:22:48 435.675 MHz FM
ISS 31 Aug 11:10:30 11:12:48 18° 131° (SE) 11:15:05 145.800 FM
UKube-1 31 Aug 12:02:17 12:06:39 87° 104° (ESE) 12:10:59 145.840 MHz, 145.915 MHz
Oscar 11 31 Aug 12:08:03 12:12:25 67° 101° (E) 12:16:44 145.825 FM, Beacon 2401.500 USB
FUNcube-1 31 Aug 12:34:32 12:38:58 51° 100° (E) 12:43:27 145.950 - 145.970 MHz USB
RS-15 31 Aug 12:38:09 12:46:46 25° 334° (NNW) 12:55:27 29.354 - 29.394 USB, Beacon 29.352 USB
ISS 31 Aug 12:46:01 12:49:15 50° 327° (NNW) 12:52:31 145.800 FM
HO-68 31 Aug 12:57:11 13:03:22 33° 298° (WNW) 13:09:33 435.675 MHz FM
PANSAT 31 Aug 13:39:15 13:40:29 11° 169° (SSE) 13:41:43 not established
Oscar 11 31 Aug 13:46:26 13:48:01 12° 297° (WNW) 13:49:36 145.825 FM, Beacon 2401.500 USB
SO-50 31 Aug 13:48:27 13:53:05 47° 53° (NE) 13:57:45 436.795 FM
JAS-1B 31 Aug 14:02:32 14:08:50 21° 56° (ENE) 14:14:41 435.800 - 435.900 CW/SSB
FUNcube-1 31 Aug 14:12:10 14:14:57 16° 295° (WNW) 14:17:45 145.950 - 145.970 MHz USB
Oscar 19 31 Aug 14:18:44 14:23:02 27° 66° (ENE) 14:27:21 437.125 CW, 437.150 USB
ISS 31 Aug 14:24:37 14:26:36 15° 346° (NNW) 14:28:35 145.800 FM
AO-Echo 31 Aug 14:43:21 14:47:07 22° 66° (ENE) 14:50:48 ?
MaSat-1 31 Aug 14:47:42 14:52:32 70° 112° (ESE) 14:57:41 437.345 MHz
ITAMSAT 1 31 Aug 14:52:16 14:56:26 25° 66° (ENE) 15:00:36 435.822 SSB
Oscar 16 31 Aug 14:52:46 14:57:49 59° 73° (ENE) 15:02:55 437.025 USB, Beacon 2401.1428
RS-15 31 Aug 14:57:17 15:04:37 19° 10° (N) 15:12:03 29.354 - 29.394 USB, Beacon 29.352 USB
Uribyol 2 31 Aug 15:01:40 15:06:12 32° 68° (ENE) 15:10:45 436.500 FM
TMSAT-1 31 Aug 15:06:38 15:08:15 11° 58° (ENE) 15:09:52 436.925 FM
PANSAT 31 Aug 15:17:47 15:19:56 14° 182° (S) 15:22:04 not established
AO-27 31 Aug 15:20:30 15:25:26 46° 71° (ENE) 15:30:22 436.795 MHz FM
SO-50 31 Aug 15:29:45 15:33:20 21° 249° (WSW) 15:36:57 436.795 FM
UOSAT-12 31 Aug 15:45:44 15:50:23 54° 54° (NE) 15:54:57 437.025 FM, 437.400 FM
JAS-1B 31 Aug 15:48:25 15:58:15 81° 73° (ENE) 16:07:05 435.800 - 435.900 CW/SSB
Gurwin Techsat 1B 31 Aug 15:51:17 15:56:12 40° 70° (ENE) 16:01:07 435.225 FM
Oscar 19 31 Aug 15:57:30 16:02:12 36° 263° (W) 16:06:58 437.125 CW, 437.150 USB
ISS 31 Aug 16:02:59 16:04:26 12° 7° (N) 16:05:54 145.800 FM
AO-Echo 31 Aug 16:20:50 16:25:37 42° 261° (W) 16:30:17 ?
MaSat-1 31 Aug 16:26:44 16:30:07 18° 311° (NW) 16:33:35 437.345 MHz
ITAMSAT 1 31 Aug 16:30:54 16:35:42 39° 262° (W) 16:40:33 435.822 SSB
Oscar 16 31 Aug 16:34:26 16:37:33 16° 269° (W) 16:40:42 437.025 USB, Beacon 2401.1428
Uribyol 2 31 Aug 16:41:10 16:45:38 30° 264° (W) 16:50:08 436.500 FM
TMSAT-1 31 Aug 16:42:03 16:47:20 86° 76° (ENE) 16:52:39 436.925 FM
AO-7 31 Aug 16:55:05 17:02:45 43° 62° (ENE) 17:10:25 29.400 - 29.500 MHz
AO-27 31 Aug 17:01:21 17:05:09 21° 267° (W) 17:08:58 436.795 MHz FM
Sapphire 31 Aug 17:07:55 17:09:34 11° 102° (ESE) 17:11:13 437.095 MHz 1200 baud AX-25 AFSK
RS-15 31 Aug 17:10:48 17:21:08 42° 43° (NE) 17:31:45 29.354 - 29.394 USB, Beacon 29.352 USB
Uosat F 31 Aug 17:11:59 17:16:24 32° 68° (ENE) 17:20:49 435.120 FM
UOSAT-12 31 Aug 17:27:03 17:30:06 17° 251° (WSW) 17:33:06 437.025 FM, 437.400 FM
Gurwin Techsat 1B 31 Aug 17:31:58 17:36:16 25° 266° (W) 17:40:35 435.225 FM
